Year,Month,Day,Hour,Minute,Value (Times are PST for temperature in C)
2017,04,18,00,00,7.20
2017,04,18,00,01,7.20
2017,04,18,00,02,7.20
2017,04,18,00,03,7.20
2017,04,18,00,04,7.10
2017,04,18,00,05,7.10
2017,04,18,00,06,7.10
2017,04,18,00,07,7.10
2017,04,18,00,08,7.10
2017,04,18,00,09,7.10
2017,04,18,00,10,7.00
2017,04,18,00,11,7.00
2017,04,18,00,12,7.00
2017,04,18,00,13,7.00
2017,04,18,00,14,7.00
2017,04,18,00,15,7.00
2017,04,18,00,16,7.00
2017,04,18,00,17,6.90
2017,04,18,00,18,6.90
2017,04,18,00,19,6.90
2017,04,18,00,20,6.90
2017,04,18,00,21,6.90
2017,04,18,00,22,6.90
2017,04,18,00,23,6.90
2017,04,18,00,24,6.90
2017,04,18,00,25,6.90
2017,04,18,00,26,6.90
2017,04,18,00,27,6.90
2017,04,18,00,28,6.90
2017,04,18,00,29,6.90
2017,04,18,00,30,6.90
2017,04,18,00,31,6.90
2017,04,18,00,32,6.90
2017,04,18,00,33,6.90
2017,04,18,00,34,6.90
2017,04,18,00,35,6.90
2017,04,18,00,36,6.90
2017,04,18,00,37,6.90
2017,04,18,00,38,6.90
2017,04,18,00,39,6.90
2017,04,18,00,40,6.90
2017,04,18,00,41,6.90
2017,04,18,00,42,6.90
2017,04,18,00,43,6.90
2017,04,18,00,44,6.90
2017,04,18,00,45,6.90
2017,04,18,00,46,6.90
2017,04,18,00,47,6.90
2017,04,18,00,48,6.90
2017,04,18,00,49,6.90
2017,04,18,00,50,6.90
2017,04,18,00,51,6.90
2017,04,18,00,52,6.90
2017,04,18,00,53,6.90
2017,04,18,00,54,6.90
2017,04,18,00,55,6.90
2017,04,18,00,56,6.90
2017,04,18,00,57,6.90
2017,04,18,00,58,6.90
2017,04,18,00,59,6.90
2017,04,18,01,00,6.90
2017,04,18,01,01,6.90
2017,04,18,01,02,6.90
2017,04,18,01,03,6.90
2017,04,18,01,04,6.90
2017,04,18,01,05,6.90
2017,04,18,01,06,6.80
2017,04,18,01,07,6.80
2017,04,18,01,08,6.80
2017,04,18,01,09,6.80
2017,04,18,01,10,6.80
2017,04,18,01,11,6.80
2017,04,18,01,12,6.80
2017,04,18,01,13,6.80
2017,04,18,01,14,6.80
2017,04,18,01,15,6.80
2017,04,18,01,16,6.80
2017,04,18,01,17,6.80
2017,04,18,01,18,6.80
2017,04,18,01,19,6.90
2017,04,18,01,20,6.90
2017,04,18,01,21,6.90
2017,04,18,01,22,6.90
2017,04,18,01,23,6.90
2017,04,18,01,24,6.90
2017,04,18,01,25,6.90
2017,04,18,01,26,6.90
2017,04,18,01,27,6.90
2017,04,18,01,28,6.90
2017,04,18,01,29,6.90
2017,04,18,01,30,6.90
2017,04,18,01,31,6.90
2017,04,18,01,32,6.90
2017,04,18,01,33,6.90
2017,04,18,01,34,6.90
2017,04,18,01,35,6.90
2017,04,18,01,36,6.90
2017,04,18,01,37,6.90
2017,04,18,01,38,7.00
2017,04,18,01,39,7.00
2017,04,18,01,40,7.00
2017,04,18,01,41,7.00
2017,04,18,01,42,7.00
2017,04,18,01,43,7.00
2017,04,18,01,44,7.00
2017,04,18,01,45,7.10
2017,04,18,01,46,7.10
2017,04,18,01,47,7.10
2017,04,18,01,48,7.10
2017,04,18,01,49,7.10
2017,04,18,01,50,7.10
2017,04,18,01,51,7.10
2017,04,18,01,52,7.20
2017,04,18,01,53,7.20
2017,04,18,01,54,7.20
2017,04,18,01,55,7.20
2017,04,18,01,56,7.30
2017,04,18,01,57,7.30
2017,04,18,01,58,7.30
2017,04,18,01,59,7.30
2017,04,18,02,00,7.30
2017,04,18,02,01,7.30
2017,04,18,02,02,7.30
2017,04,18,02,03,7.30
2017,04,18,02,04,7.20
2017,04,18,02,05,7.20
2017,04,18,02,06,7.20
2017,04,18,02,07,7.20
2017,04,18,02,08,7.20
2017,04,18,02,09,7.20
2017,04,18,02,10,7.10
2017,04,18,02,11,7.10
2017,04,18,02,12,7.10
2017,04,18,02,13,7.10
2017,04,18,02,14,7.00
2017,04,18,02,15,7.00
2017,04,18,02,16,7.00
2017,04,18,02,17,7.00
2017,04,18,02,18,7.00
2017,04,18,02,19,6.90
2017,04,18,02,20,6.90
2017,04,18,02,21,6.90
2017,04,18,02,22,6.80
2017,04,18,02,23,6.80
2017,04,18,02,24,6.80
2017,04,18,02,25,6.80
2017,04,18,02,26,6.80
2017,04,18,02,27,6.80
2017,04,18,02,28,6.80
2017,04,18,02,29,6.70
2017,04,18,02,30,6.70
2017,04,18,02,31,6.70
2017,04,18,02,32,6.60
2017,04,18,02,33,6.60
2017,04,18,02,34,6.60
2017,04,18,02,35,6.60
2017,04,18,02,36,6.60
2017,04,18,02,37,6.50
2017,04,18,02,38,6.40
2017,04,18,02,39,6.40
2017,04,18,02,40,6.40
2017,04,18,02,41,6.40
2017,04,18,02,42,6.40
2017,04,18,02,43,6.40
2017,04,18,02,44,6.40
2017,04,18,02,45,6.40
2017,04,18,02,46,6.40
2017,04,18,02,47,6.40
2017,04,18,02,48,6.30
2017,04,18,02,49,6.30
2017,04,18,02,50,6.30
2017,04,18,02,51,6.30
2017,04,18,02,52,6.30
2017,04,18,02,53,6.30
2017,04,18,02,54,6.30
2017,04,18,02,55,6.30
2017,04,18,02,56,6.30
2017,04,18,02,57,6.30
2017,04,18,02,58,6.30
2017,04,18,02,59,6.30
2017,04,18,03,00,6.30
2017,04,18,03,01,6.30
2017,04,18,03,02,6.30
2017,04,18,03,03,6.30
2017,04,18,03,04,6.30
2017,04,18,03,05,6.30
2017,04,18,03,06,6.30
2017,04,18,03,07,6.40
2017,04,18,03,08,6.40
2017,04,18,03,09,6.40
2017,04,18,03,10,6.40
2017,04,18,03,11,6.40
2017,04,18,03,12,6.50
2017,04,18,03,13,6.60
2017,04,18,03,14,6.60
2017,04,18,03,15,6.60
2017,04,18,03,16,6.60
2017,04,18,03,17,6.60
2017,04,18,03,18,6.60
2017,04,18,03,19,6.60
2017,04,18,03,20,6.70
2017,04,18,03,21,6.70
2017,04,18,03,22,6.70
2017,04,18,03,23,6.70
2017,04,18,03,24,6.80
2017,04,18,03,25,6.80
2017,04,18,03,26,6.80
2017,04,18,03,27,6.80
2017,04,18,03,28,6.80
2017,04,18,03,29,6.80
2017,04,18,03,30,6.80
2017,04,18,03,31,6.80
2017,04,18,03,32,6.80
2017,04,18,03,33,6.80
2017,04,18,03,34,6.80
2017,04,18,03,35,6.80
2017,04,18,03,36,6.80
2017,04,18,03,37,6.80
2017,04,18,03,38,6.80
2017,04,18,03,39,6.80
2017,04,18,03,40,6.80
2017,04,18,03,41,6.80
2017,04,18,03,42,6.80
2017,04,18,03,43,6.70
2017,04,18,03,44,6.70
2017,04,18,03,45,6.60
2017,04,18,03,46,6.60
2017,04,18,03,47,6.50
2017,04,18,03,48,6.40
2017,04,18,03,49,6.40
2017,04,18,03,50,6.40
2017,04,18,03,51,6.40
2017,04,18,03,52,6.30
2017,04,18,03,53,6.30
2017,04,18,03,54,6.30
2017,04,18,03,55,6.30
2017,04,18,03,56,6.20
2017,04,18,03,57,6.20
2017,04,18,03,58,6.20
2017,04,18,03,59,6.20
2017,04,18,04,00,6.20
2017,04,18,04,01,6.20
2017,04,18,04,02,6.20
2017,04,18,04,03,6.20
2017,04,18,04,04,6.20
2017,04,18,04,05,6.20
2017,04,18,04,06,6.20
2017,04,18,04,07,6.20
2017,04,18,04,08,6.20
2017,04,18,04,09,6.20
2017,04,18,04,10,6.20
2017,04,18,04,11,6.20
2017,04,18,04,12,6.20
2017,04,18,04,13,6.20
2017,04,18,04,14,6.20
2017,04,18,04,15,6.20
2017,04,18,04,16,6.20
2017,04,18,04,17,6.20
2017,04,18,04,18,6.20
2017,04,18,04,19,6.20
2017,04,18,04,20,6.20
2017,04,18,04,21,6.20
2017,04,18,04,22,6.20
2017,04,18,04,23,6.20
2017,04,18,04,24,6.20
2017,04,18,04,25,6.20
2017,04,18,04,26,6.10
2017,04,18,04,27,6.10
2017,04,18,04,28,6.10
2017,04,18,04,29,6.10
2017,04,18,04,30,6.10
2017,04,18,04,31,6.10
2017,04,18,04,32,6.00
2017,04,18,04,33,6.00
2017,04,18,04,34,6.00
2017,04,18,04,35,6.00
2017,04,18,04,36,6.00
2017,04,18,04,37,5.90
2017,04,18,04,38,5.90
2017,04,18,04,39,5.90
2017,04,18,04,40,6.00
2017,04,18,04,41,6.00
2017,04,18,04,42,6.00
2017,04,18,04,43,6.00
2017,04,18,04,44,6.00
2017,04,18,04,45,6.00
2017,04,18,04,46,6.00
2017,04,18,04,47,6.00
2017,04,18,04,48,6.00
2017,04,18,04,49,6.00
2017,04,18,04,50,5.90
2017,04,18,04,51,5.90
2017,04,18,04,52,5.90
2017,04,18,04,53,5.90
2017,04,18,04,54,5.90
2017,04,18,04,55,5.80
2017,04,18,04,56,5.80
2017,04,18,04,57,5.70
2017,04,18,04,58,5.70
2017,04,18,04,59,5.70
2017,04,18,05,00,5.70
2017,04,18,05,01,5.70
2017,04,18,05,02,5.70
2017,04,18,05,03,5.70
2017,04,18,05,04,5.70
2017,04,18,05,05,5.60
2017,04,18,05,06,5.60
2017,04,18,05,07,5.60
2017,04,18,05,08,5.60
2017,04,18,05,09,5.60
2017,04,18,05,10,5.60
2017,04,18,05,11,5.50
2017,04,18,05,12,5.50
2017,04,18,05,13,5.50
2017,04,18,05,14,5.50
2017,04,18,05,15,5.50
2017,04,18,05,16,5.50
2017,04,18,05,17,5.50
2017,04,18,05,18,5.50
2017,04,18,05,19,5.50
2017,04,18,05,20,5.50
2017,04,18,05,21,5.50
2017,04,18,05,22,5.50
2017,04,18,05,23,5.50
2017,04,18,05,24,5.50
2017,04,18,05,25,5.50
2017,04,18,05,26,5.50
2017,04,18,05,27,5.50
2017,04,18,05,28,5.50
2017,04,18,05,29,5.40
2017,04,18,05,30,5.40
2017,04,18,05,31,5.40
2017,04,18,05,32,5.40
2017,04,18,05,33,5.40
2017,04,18,05,34,5.40
2017,04,18,05,35,5.40
2017,04,18,05,36,5.40
2017,04,18,05,37,5.50
2017,04,18,05,38,5.50
2017,04,18,05,39,5.50
2017,04,18,05,40,5.50
2017,04,18,05,41,5.50
2017,04,18,05,42,5.50
2017,04,18,05,43,5.50
2017,04,18,05,44,5.60
2017,04,18,05,45,5.60
2017,04,18,05,46,5.60
2017,04,18,05,47,5.60
2017,04,18,05,48,5.60
2017,04,18,05,49,5.60
2017,04,18,05,50,5.60
2017,04,18,05,51,5.60
2017,04,18,05,52,5.70
2017,04,18,05,53,5.70
2017,04,18,05,54,5.70
2017,04,18,05,55,5.70
2017,04,18,05,56,5.70
2017,04,18,05,57,5.70
2017,04,18,05,58,5.70
2017,04,18,05,59,5.70
2017,04,18,06,00,5.70
2017,04,18,06,01,5.70
2017,04,18,06,02,5.70
2017,04,18,06,03,5.80
2017,04,18,06,04,5.80
2017,04,18,06,05,5.90
2017,04,18,06,06,5.90
2017,04,18,06,07,5.90
2017,04,18,06,08,5.90
2017,04,18,06,09,5.90
2017,04,18,06,10,5.90
2017,04,18,06,11,5.90
2017,04,18,06,12,6.00
2017,04,18,06,13,6.00
2017,04,18,06,14,6.10
2017,04,18,06,15,6.10
2017,04,18,06,16,6.10
2017,04,18,06,17,6.10
2017,04,18,06,18,6.20
2017,04,18,06,19,6.20
2017,04,18,06,20,6.20
2017,04,18,06,21,6.20
2017,04,18,06,22,6.30
2017,04,18,06,23,6.30
2017,04,18,06,24,6.30
2017,04,18,06,25,6.30
2017,04,18,06,26,6.40
2017,04,18,06,27,6.40
2017,04,18,06,28,6.40
2017,04,18,06,29,6.30
2017,04,18,06,30,6.30
2017,04,18,06,31,6.30
2017,04,18,06,32,6.30
2017,04,18,06,33,6.30
2017,04,18,06,34,6.20
2017,04,18,06,35,6.20
2017,04,18,06,36,6.20
2017,04,18,06,37,6.20
2017,04,18,06,38,6.20
2017,04,18,06,39,6.20
2017,04,18,06,40,6.20
2017,04,18,06,41,6.20
2017,04,18,06,42,6.20
2017,04,18,06,43,6.20
2017,04,18,06,44,6.20
2017,04,18,06,45,6.20
2017,04,18,06,46,6.20
2017,04,18,06,47,6.20
2017,04,18,06,48,6.20
2017,04,18,06,49,6.20
2017,04,18,06,50,6.20
2017,04,18,06,51,6.20
2017,04,18,06,52,6.20
2017,04,18,06,53,6.20
2017,04,18,06,54,6.20
2017,04,18,06,55,6.20
2017,04,18,06,56,6.20
2017,04,18,06,57,6.20
2017,04,18,06,58,6.20
2017,04,18,06,59,6.20
2017,04,18,07,00,6.20
2017,04,18,07,01,6.30
2017,04,18,07,02,6.30
2017,04,18,07,03,6.30
2017,04,18,07,04,6.30
2017,04,18,07,05,6.40
2017,04,18,07,06,6.40
2017,04,18,07,07,6.40
2017,04,18,07,08,6.40
2017,04,18,07,09,6.40
2017,04,18,07,10,6.40
2017,04,18,07,11,6.40
2017,04,18,07,12,6.40
2017,04,18,07,13,6.40
2017,04,18,07,14,6.40
2017,04,18,07,15,6.40
2017,04,18,07,16,6.40
2017,04,18,07,17,6.60
2017,04,18,07,18,6.60
2017,04,18,07,19,6.60
2017,04,18,07,20,6.70
2017,04,18,07,21,6.70
2017,04,18,07,22,6.80
2017,04,18,07,23,6.80
2017,04,18,07,24,6.80
2017,04,18,07,25,6.80
2017,04,18,07,26,6.80
2017,04,18,07,27,6.80
2017,04,18,07,28,6.80
2017,04,18,07,29,6.80
2017,04,18,07,30,6.80
2017,04,18,07,31,6.80
2017,04,18,07,32,6.80
2017,04,18,07,33,6.80
2017,04,18,07,34,6.80
2017,04,18,07,35,6.80
2017,04,18,07,36,6.90
2017,04,18,07,37,7.00
2017,04,18,07,38,7.00
2017,04,18,07,39,7.10
2017,04,18,07,40,7.20
2017,04,18,07,41,7.20
2017,04,18,07,42,7.20
2017,04,18,07,43,7.30
2017,04,18,07,44,7.30
2017,04,18,07,45,7.30
2017,04,18,07,46,7.30
2017,04,18,07,47,7.30
2017,04,18,07,48,7.30
2017,04,18,07,49,7.30
2017,04,18,07,50,7.30
2017,04,18,07,51,7.30
2017,04,18,07,52,7.30
2017,04,18,07,53,7.30
2017,04,18,07,54,7.30
2017,04,18,07,55,7.30
2017,04,18,07,56,7.30
2017,04,18,07,57,7.30
2017,04,18,07,58,7.30
2017,04,18,07,59,7.30
2017,04,18,08,00,7.30
2017,04,18,08,01,7.30
2017,04,18,08,02,7.40
2017,04,18,08,03,7.40
2017,04,18,08,04,7.40
2017,04,18,08,05,7.40
2017,04,18,08,06,7.50
2017,04,18,08,07,7.50
2017,04,18,08,08,7.50
2017,04,18,08,09,7.50
2017,04,18,08,10,7.60
2017,04,18,08,11,7.60
2017,04,18,08,12,7.60
2017,04,18,08,13,7.60
2017,04,18,08,14,7.70
2017,04,18,08,15,7.70
2017,04,18,08,16,7.70
2017,04,18,08,17,7.80
2017,04,18,08,18,7.80
2017,04,18,08,19,7.80
2017,04,18,08,20,7.80
2017,04,18,08,21,7.80
2017,04,18,08,22,7.80
2017,04,18,08,23,7.90
2017,04,18,08,24,7.90
2017,04,18,08,25,7.90
2017,04,18,08,26,8.00
2017,04,18,08,27,8.00
2017,04,18,08,28,8.10
2017,04,18,08,29,8.10
2017,04,18,08,30,8.20
2017,04,18,08,31,8.20
2017,04,18,08,32,8.20
2017,04,18,08,33,8.30
2017,04,18,08,34,8.30
2017,04,18,08,35,8.40
2017,04,18,08,36,8.40
2017,04,18,08,37,8.40
2017,04,18,08,38,8.40
2017,04,18,08,39,8.40
2017,04,18,08,40,8.50
2017,04,18,08,41,8.50
2017,04,18,08,42,8.50
2017,04,18,08,43,8.50
2017,04,18,08,44,8.50
2017,04,18,08,45,8.60
2017,04,18,08,46,8.60
2017,04,18,08,47,8.60
2017,04,18,08,48,8.70
2017,04,18,08,49,8.70
2017,04,18,08,50,8.70
2017,04,18,08,51,8.70
2017,04,18,08,52,8.80
2017,04,18,08,53,8.90
2017,04,18,08,54,8.90
2017,04,18,08,55,9.00
2017,04,18,08,56,9.00
2017,04,18,08,57,9.10
2017,04,18,08,58,9.20
2017,04,18,08,59,9.30
2017,04,18,09,00,9.40
2017,04,18,09,01,9.50
2017,04,18,09,02,9.70
2017,04,18,09,03,9.80
2017,04,18,09,04,9.90
2017,04,18,09,05,10.00
2017,04,18,09,06,10.10
2017,04,18,09,07,10.10
2017,04,18,09,08,10.10
2017,04,18,09,09,10.20
2017,04,18,09,10,10.20
2017,04,18,09,11,10.10
2017,04,18,09,12,10.10
2017,04,18,09,13,10.20
2017,04,18,09,14,10.20
2017,04,18,09,15,10.30
2017,04,18,09,16,10.40
2017,04,18,09,17,10.40
2017,04,18,09,18,10.40
2017,04,18,09,19,10.50
2017,04,18,09,20,10.60
2017,04,18,09,21,10.50
2017,04,18,09,22,10.40
2017,04,18,09,23,10.30
2017,04,18,09,24,10.20
2017,04,18,09,25,10.20
2017,04,18,09,26,10.10
2017,04,18,09,27,10.10
2017,04,18,09,28,10.10
2017,04,18,09,29,10.10
2017,04,18,09,30,10.10
2017,04,18,09,31,10.10
2017,04,18,09,32,10.10
2017,04,18,09,33,10.10
2017,04,18,09,34,10.10
2017,04,18,09,35,10.10
2017,04,18,09,36,10.10
2017,04,18,09,37,10.10
2017,04,18,09,38,10.20
2017,04,18,09,39,10.20
2017,04,18,09,40,10.20
2017,04,18,09,41,10.20
2017,04,18,09,42,10.20
2017,04,18,09,43,10.20
2017,04,18,09,44,10.30
2017,04,18,09,45,10.30
2017,04,18,09,46,10.30
2017,04,18,09,47,10.30
2017,04,18,09,48,10.40
2017,04,18,09,49,10.40
2017,04,18,09,50,10.40
2017,04,18,09,51,10.40
2017,04,18,09,52,10.40
2017,04,18,09,53,10.40
2017,04,18,09,54,10.50
2017,04,18,09,55,10.60
2017,04,18,09,56,10.60
2017,04,18,09,57,10.60
2017,04,18,09,58,10.60
2017,04,18,09,59,10.60
2017,04,18,10,00,10.60
2017,04,18,10,01,10.60
2017,04,18,10,02,10.60
2017,04,18,10,03,10.70
2017,04,18,10,04,10.70
2017,04,18,10,05,10.80
2017,04,18,10,06,10.90
2017,04,18,10,07,10.90
2017,04,18,10,08,11.00
2017,04,18,10,09,11.10
2017,04,18,10,10,11.20
2017,04,18,10,11,11.30
2017,04,18,10,12,11.40
2017,04,18,10,13,11.40
2017,04,18,10,14,11.50
2017,04,18,10,15,11.60
2017,04,18,10,16,11.60
2017,04,18,10,17,11.60
2017,04,18,10,18,11.60
2017,04,18,10,19,11.60
2017,04,18,10,20,11.50
2017,04,18,10,21,11.40
2017,04,18,10,22,11.40
2017,04,18,10,23,11.40
2017,04,18,10,24,11.40
2017,04,18,10,25,11.40
2017,04,18,10,26,11.60
2017,04,18,10,27,11.60
2017,04,18,10,28,11.60
2017,04,18,10,29,11.50
2017,04,18,10,30,11.40
2017,04,18,10,31,11.40
2017,04,18,10,32,11.40
2017,04,18,10,33,11.40
2017,04,18,10,34,11.40
2017,04,18,10,35,11.40
2017,04,18,10,36,11.30
2017,04,18,10,37,11.30
2017,04,18,10,38,11.30
2017,04,18,10,39,11.40
2017,04,18,10,40,11.40
2017,04,18,10,41,11.40
2017,04,18,10,42,11.40
2017,04,18,10,43,11.60
2017,04,18,10,44,11.50
2017,04,18,10,45,11.50
2017,04,18,10,46,11.50
2017,04,18,10,47,11.40
2017,04,18,10,48,11.40
2017,04,18,10,49,11.40
2017,04,18,10,50,11.40
2017,04,18,10,51,11.40
2017,04,18,10,52,11.40
2017,04,18,10,53,11.40
2017,04,18,10,54,11.40
2017,04,18,10,55,11.40
2017,04,18,10,56,11.40
2017,04,18,10,57,11.60
2017,04,18,10,58,11.60
2017,04,18,10,59,11.80
2017,04,18,11,00,11.90
2017,04,18,11,01,12.00
2017,04,18,11,02,12.10
2017,04,18,11,03,12.20
2017,04,18,11,04,12.30
2017,04,18,11,05,12.40
2017,04,18,11,06,12.50
2017,04,18,11,07,12.50
2017,04,18,11,08,12.50
2017,04,18,11,09,12.50
2017,04,18,11,10,12.50
2017,04,18,11,11,12.40
2017,04,18,11,12,12.40
2017,04,18,11,13,12.40
2017,04,18,11,14,12.40
2017,04,18,11,15,12.40
2017,04,18,11,16,12.40
2017,04,18,11,17,12.40
2017,04,18,11,18,12.50
2017,04,18,11,19,12.50
2017,04,18,11,20,12.50
2017,04,18,11,21,12.40
2017,04,18,11,22,12.50
2017,04,18,11,23,12.40
2017,04,18,11,24,12.30
2017,04,18,11,25,12.30
2017,04,18,11,26,12.30
2017,04,18,11,27,12.30
2017,04,18,11,28,12.30
2017,04,18,11,29,12.40
2017,04,18,11,30,12.50
2017,04,18,11,31,12.60
2017,04,18,11,32,12.70
2017,04,18,11,33,12.80
2017,04,18,11,34,12.80
2017,04,18,11,35,12.80
2017,04,18,11,36,12.80
2017,04,18,11,37,12.80
2017,04,18,11,38,12.90
2017,04,18,11,39,12.90
2017,04,18,11,40,12.90
2017,04,18,11,41,13.00
2017,04,18,11,42,13.00
2017,04,18,11,43,13.10
2017,04,18,11,44,13.10
2017,04,18,11,45,13.20
2017,04,18,11,46,13.30
2017,04,18,11,47,13.30
2017,04,18,11,48,13.30
2017,04,18,11,49,13.40
2017,04,18,11,50,13.40
2017,04,18,11,51,13.40
2017,04,18,11,52,13.40
2017,04,18,11,53,13.40
2017,04,18,11,54,13.50
2017,04,18,11,55,13.50
2017,04,18,11,56,13.50
2017,04,18,11,57,13.50
2017,04,18,11,58,13.50
2017,04,18,11,59,13.50
2017,04,18,12,00,13.60
2017,04,18,12,01,13.60
2017,04,18,12,02,13.60
2017,04,18,12,03,13.60
2017,04,18,12,04,13.60
2017,04,18,12,05,13.70
2017,04,18,12,06,13.70
2017,04,18,12,07,13.70
2017,04,18,12,08,13.70
2017,04,18,12,09,13.70
2017,04,18,12,10,13.70
2017,04,18,12,11,13.70
2017,04,18,12,12,13.70
2017,04,18,12,13,13.70
2017,04,18,12,14,13.70
2017,04,18,12,15,13.60
2017,04,18,12,16,13.60
2017,04,18,12,17,13.60
2017,04,18,12,18,13.50
2017,04,18,12,19,13.40
2017,04,18,12,20,13.30
2017,04,18,12,21,13.30
2017,04,18,12,22,13.30
2017,04,18,12,23,13.30
2017,04,18,12,24,13.30
2017,04,18,12,25,13.20
2017,04,18,12,26,13.10
2017,04,18,12,27,13.10
2017,04,18,12,28,13.00
2017,04,18,12,29,13.00
2017,04,18,12,30,13.00
2017,04,18,12,31,13.00
2017,04,18,12,32,13.00
2017,04,18,12,33,13.10
2017,04,18,12,34,13.10
2017,04,18,12,35,13.10
2017,04,18,12,36,13.10
2017,04,18,12,37,13.10
2017,04,18,12,38,13.10
2017,04,18,12,39,13.20
2017,04,18,12,40,13.30
2017,04,18,12,41,13.40
2017,04,18,12,42,13.50
2017,04,18,12,43,13.60
2017,04,18,12,44,13.70
2017,04,18,12,45,13.70
2017,04,18,12,46,13.80
2017,04,18,12,47,13.80
2017,04,18,12,48,13.80
2017,04,18,12,49,13.90
2017,04,18,12,50,13.90
2017,04,18,12,51,13.90
2017,04,18,12,52,14.00
2017,04,18,12,53,14.10
2017,04,18,12,54,14.10
2017,04,18,12,55,14.10
2017,04,18,12,56,14.10
2017,04,18,12,57,14.10
2017,04,18,12,58,14.10
2017,04,18,12,59,14.10
2017,04,18,13,00,14.20
2017,04,18,13,01,14.30
2017,04,18,13,02,14.40
2017,04,18,13,03,14.50
2017,04,18,13,04,14.50
2017,04,18,13,05,14.50
2017,04,18,13,06,14.40
2017,04,18,13,07,14.30
2017,04,18,13,08,14.20
2017,04,18,13,09,14.20
2017,04,18,13,10,14.20
2017,04,18,13,11,14.20
2017,04,18,13,12,14.10
2017,04,18,13,13,14.00
2017,04,18,13,14,14.00
2017,04,18,13,15,14.00
2017,04,18,13,16,13.90
2017,04,18,13,17,13.90
2017,04,18,13,18,13.90
2017,04,18,13,19,13.80
2017,04,18,13,20,13.70
2017,04,18,13,21,13.60
2017,04,18,13,22,13.60
2017,04,18,13,23,13.50
2017,04,18,13,24,13.40
2017,04,18,13,25,13.40
2017,04,18,13,26,13.30
2017,04,18,13,27,13.30
2017,04,18,13,28,13.30
2017,04,18,13,29,13.30
2017,04,18,13,30,13.30
2017,04,18,13,31,13.30
2017,04,18,13,32,13.30
2017,04,18,13,33,13.30
2017,04,18,13,34,13.40
2017,04,18,13,35,13.50
2017,04,18,13,36,13.50
2017,04,18,13,37,13.60
2017,04,18,13,38,13.70
2017,04,18,13,39,13.90
2017,04,18,13,40,14.00
2017,04,18,13,41,14.00
2017,04,18,13,42,14.10
2017,04,18,13,43,14.20
2017,04,18,13,44,14.40
2017,04,18,13,45,14.50
2017,04,18,13,46,14.50
2017,04,18,13,47,14.50
2017,04,18,13,48,14.60
2017,04,18,13,49,14.50
2017,04,18,13,50,14.60
2017,04,18,13,51,14.50
2017,04,18,13,52,14.40
2017,04,18,13,53,14.40
2017,04,18,13,54,14.30
2017,04,18,13,55,14.30
2017,04,18,13,56,14.20
2017,04,18,13,57,14.20
2017,04,18,13,58,14.10
2017,04,18,13,59,14.10
2017,04,18,14,00,14.10
2017,04,18,14,01,14.10
2017,04,18,14,02,14.10
2017,04,18,14,03,14.10
2017,04,18,14,04,14.10
2017,04,18,14,05,14.10
2017,04,18,14,06,14.10
2017,04,18,14,07,14.10
2017,04,18,14,08,14.10
2017,04,18,14,09,14.10
2017,04,18,14,10,14.00
2017,04,18,14,11,14.10
2017,04,18,14,12,14.10
2017,04,18,14,13,14.20
2017,04,18,14,14,14.30
2017,04,18,14,15,14.30
2017,04,18,14,16,14.40
2017,04,18,14,17,14.40
2017,04,18,14,18,14.40
2017,04,18,14,19,14.40
2017,04,18,14,20,14.40
2017,04,18,14,21,14.50
2017,04,18,14,22,14.40
2017,04,18,14,23,14.30
2017,04,18,14,24,14.30
2017,04,18,14,25,14.30
2017,04,18,14,26,14.30
2017,04,18,14,27,14.30
2017,04,18,14,28,14.40
2017,04,18,14,29,14.50
2017,04,18,14,30,14.60
2017,04,18,14,31,14.60
2017,04,18,14,32,14.70
2017,04,18,14,33,14.70
2017,04,18,14,34,14.60
2017,04,18,14,35,14.50
2017,04,18,14,36,14.20
2017,04,18,14,37,14.10
2017,04,18,14,38,13.90
2017,04,18,14,39,13.90
2017,04,18,14,40,13.80
2017,04,18,14,41,13.70
2017,04,18,14,42,13.70
2017,04,18,14,43,13.70
2017,04,18,14,44,13.70
2017,04,18,14,45,13.70
2017,04,18,14,46,13.70
2017,04,18,14,47,13.70
2017,04,18,14,48,13.80
2017,04,18,14,49,13.80
2017,04,18,14,50,13.90
2017,04,18,14,51,14.00
2017,04,18,14,52,14.10
2017,04,18,14,53,14.10
2017,04,18,14,54,14.10
2017,04,18,14,55,14.10
2017,04,18,14,56,14.20
2017,04,18,14,57,14.10
2017,04,18,14,58,14.10
2017,04,18,14,59,14.00
2017,04,18,15,00,14.00
2017,04,18,15,01,14.00
2017,04,18,15,02,14.00
2017,04,18,15,03,14.10
2017,04,18,15,04,14.20
2017,04,18,15,05,14.20
2017,04,18,15,06,14.20
2017,04,18,15,07,14.20
2017,04,18,15,08,14.30
2017,04,18,15,09,14.30
2017,04,18,15,10,14.30
2017,04,18,15,11,14.20
2017,04,18,15,12,14.20
2017,04,18,15,13,14.20
2017,04,18,15,14,14.30
2017,04,18,15,15,14.40
2017,04,18,15,16,14.50
2017,04,18,15,17,14.50
2017,04,18,15,18,14.60
2017,04,18,15,19,14.70
2017,04,18,15,20,14.70
2017,04,18,15,21,14.70
2017,04,18,15,22,14.70
2017,04,18,15,23,14.60
2017,04,18,15,24,14.50
2017,04,18,15,25,14.50
2017,04,18,15,26,14.50
2017,04,18,15,27,14.40
2017,04,18,15,28,14.30
2017,04,18,15,29,14.30
2017,04,18,15,30,14.30
2017,04,18,15,31,14.30
2017,04,18,15,32,14.30
2017,04,18,15,33,14.20
2017,04,18,15,34,14.10
2017,04,18,15,35,14.10
2017,04,18,15,36,14.10
2017,04,18,15,37,14.00
2017,04,18,15,38,13.90
2017,04,18,15,39,13.90
2017,04,18,15,40,13.70
2017,04,18,15,41,13.70
2017,04,18,15,42,13.60
2017,04,18,15,43,13.60
2017,04,18,15,44,13.50
2017,04,18,15,45,13.40
2017,04,18,15,46,13.30
2017,04,18,15,47,13.30
2017,04,18,15,48,13.30
2017,04,18,15,49,13.30
2017,04,18,15,50,13.30
2017,04,18,15,51,13.20
2017,04,18,15,52,13.20
2017,04,18,15,53,13.10
2017,04,18,15,54,13.10
2017,04,18,15,55,13.10
2017,04,18,15,56,13.00
2017,04,18,15,57,13.00
2017,04,18,15,58,13.10
2017,04,18,15,59,13.10
2017,04,18,16,00,13.20
2017,04,18,16,01,13.20
2017,04,18,16,02,13.20
2017,04,18,16,03,13.20
2017,04,18,16,04,13.10
2017,04,18,16,05,13.10
2017,04,18,16,06,13.10
2017,04,18,16,07,13.10
2017,04,18,16,08,13.10
2017,04,18,16,09,13.10
2017,04,18,16,10,13.20
2017,04,18,16,11,13.30
2017,04,18,16,12,13.30
2017,04,18,16,13,13.30
2017,04,18,16,14,13.30
2017,04,18,16,15,13.30
2017,04,18,16,16,13.20
2017,04,18,16,17,13.20
2017,04,18,16,18,13.10
2017,04,18,16,19,13.00
2017,04,18,16,20,13.00
2017,04,18,16,21,12.90
2017,04,18,16,22,12.80
2017,04,18,16,23,12.80
2017,04,18,16,24,12.80
2017,04,18,16,25,12.70
2017,04,18,16,26,12.60
2017,04,18,16,27,12.50
2017,04,18,16,28,12.40
2017,04,18,16,29,12.30
2017,04,18,16,30,12.20
2017,04,18,16,31,12.10
2017,04,18,16,32,12.00
2017,04,18,16,33,11.80
2017,04,18,16,34,11.80
2017,04,18,16,35,11.80
2017,04,18,16,36,11.80
2017,04,18,16,37,11.70
2017,04,18,16,38,11.70
2017,04,18,16,39,11.70
2017,04,18,16,40,11.70
2017,04,18,16,41,11.70
2017,04,18,16,42,11.70
2017,04,18,16,43,11.80
2017,04,18,16,44,11.80
2017,04,18,16,45,11.80
2017,04,18,16,46,11.80
2017,04,18,16,47,11.80
2017,04,18,16,48,11.80
2017,04,18,16,49,11.70
2017,04,18,16,50,11.70
2017,04,18,16,51,11.70
2017,04,18,16,52,11.70
2017,04,18,16,53,11.60
2017,04,18,16,54,11.60
2017,04,18,16,55,11.60
2017,04,18,16,56,11.60
2017,04,18,16,57,11.60
2017,04,18,16,58,11.60
2017,04,18,16,59,11.60
2017,04,18,17,00,11.60
2017,04,18,17,01,11.60
2017,04,18,17,02,11.60
2017,04,18,17,03,11.60
2017,04,18,17,04,11.60
2017,04,18,17,05,11.60
2017,04,18,17,06,11.60
2017,04,18,17,07,11.60
2017,04,18,17,08,11.60
2017,04,18,17,09,11.60
2017,04,18,17,10,11.60
2017,04,18,17,11,11.70
2017,04,18,17,12,11.70
2017,04,18,17,13,11.70
2017,04,18,17,14,11.70
2017,04,18,17,15,11.70
2017,04,18,17,16,11.60
2017,04,18,17,17,11.60
2017,04,18,17,18,11.60
2017,04,18,17,19,11.60
2017,04,18,17,20,11.60
2017,04,18,17,21,11.60
2017,04,18,17,22,11.60
2017,04,18,17,23,11.60
2017,04,18,17,24,11.60
2017,04,18,17,25,11.60
2017,04,18,17,26,11.60
2017,04,18,17,27,11.60
2017,04,18,17,28,11.60
2017,04,18,17,29,11.60
2017,04,18,17,30,11.60
2017,04,18,17,31,11.60
2017,04,18,17,32,11.60
2017,04,18,17,33,11.60
2017,04,18,17,34,11.60
2017,04,18,17,35,11.60
2017,04,18,17,36,11.60
2017,04,18,17,37,11.60
2017,04,18,17,38,11.60
2017,04,18,17,39,11.60
2017,04,18,17,40,11.60
2017,04,18,17,41,11.60
2017,04,18,17,42,11.60
2017,04,18,17,43,11.70